Home > Weather > Cartagena > Past weeks

Flag for Colombia Weather for the Past 2 Weeks in Cartagena, Colombia

Now
79 °F

Passing clouds.


Feels Like: 82 °F
Forecast: 78 / 88 °F
Wind: 7 mph from Northeast

Location: Cartagena / Rafael Nunez

Current Time: Feb 12, 2016 at 7:29:03 AM

Latest Report: Feb 12, 2016 at 7:00 AM


Visibility: N/A

Pressure: 29.84 "Hg

Humidity: 79%

Dew point: 72 °F

Location of CartagenaLocation

Historic Weather in Cartagena — Graph

°F

Cartagena Temperature Yesterday

Maximum temperature yesterday: 91 °F (at 1:00 PM)
Minimum temperature yesterday: 77 °F (at 6:00 AM)
Average temperature yesterday: 83 °F

High & Low Weather Summary for the Past Weeks

 TemperatureHumidityPressure
High91 °F (Feb 6, 1:00 PM)100% (Jan 30, 8:00 AM)30.35 "Hg (Jan 30, 8:00 AM)
Low41 °F (Feb 4, 3:00 AM)55% (Feb 4, 11:00 AM)29.71 "Hg (Feb 3, 4:00 PM)
Average82 °F77%29.82 "Hg
* Reported Jan 28 6:00 AM — Feb 12 6:00 AM, Cartagena, Weather by CustomWeather, © 2016

Note: Actual official high and low records may vary slightly from our data, if they occured in-between our weather recording intervals... More about our weather records

Advertising

Cartagena Weather History for the Previous 24 Hours

 ConditionsComfort  
Time TempWeatherWind HumidityBarometerVisibility
6:00 AM
Fri, Feb 12
79 °FPassing clouds.5 mph79%N/AN/A
5:00 AM79 °FClear.5 mph84%29.80 "Hg10 mi
4:00 AM79 °FClear.5 mph79%29.78 "Hg10 mi
3:00 AM79 °FClear.5 mph84%29.76 "Hg10 mi
2:00 AM79 °FClear.5 mph84%29.77 "Hg10 mi
1:00 AM79 °FClear.5 mph84%29.80 "Hg10 mi
12:00 AM81 °FClear.7 mph79%29.80 "Hg10 mi
11:00 PM
Thu, Feb 11
81 °FClear.9 mph84%29.82 "Hg10 mi
10:00 PM81 °FClear.9 mph79%29.83 "Hg10 mi
9:00 PM81 °FClear.12 mph79%29.81 "Hg10 mi
8:00 PM81 °FClear.12 mph84%29.79 "Hg10 mi
7:00 PM81 °FClear.12 mph79%29.77 "Hg10 mi
6:00 PM82 °FSunny.16 mph79%29.76 "Hg10 mi
5:00 PM86 °FSunny.14 mph66%29.75 "Hg10 mi
4:00 PM88 °FPassing clouds.16 mph62%29.74 "HgN/A
3:00 PM90 °FPassing clouds.N/A59%29.76 "HgN/A
2:00 PM90 °FPassing clouds.23 mph63%29.77 "HgN/A
1:00 PM91 °FPassing clouds.18 mph59%29.80 "HgN/A
12:00 PM88 °FClear.15 mph66%29.83 "Hg6 mi
11:00 AM86 °FClear.12 mph70%29.86 "Hg6 mi
10:00 AM86 °FClear.7 mph70%29.88 "Hg6 mi
9:00 AM81 °FClear.2 mph84%29.85 "Hg6 mi
8:00 AM81 °FClear.2 mph84%29.85 "Hg5 mi
7:00 AM79 °FClear.No wind84%29.83 "Hg6 mi
Weather by CustomWeather, © 2016

See weather overviewHow to use our weather pages